Regional Weather Roundup
Issued by NWS Memphis, TN

Home | Current Version | Previous Version | Text Only | Print | Product List | Glossary On
Versions: 1 2 3 4 5 6 7 8 9 10 11 12 13 14 15 16 17 18 19 20 21 22 23 24 25 26 27 28 29 30 31 32 33 34 35 36 37 38 39 40 41 42 43 44 45 46 47 48 49 50
000
ASUS44 KMEG 280510
RWRMEG
MEMPHIS CWA HOURLY WEATHER ROUNDUP
NATIONAL WEATHER SERVICE MEMPHIS TN
1200 AM CDT SUN MAY 28 2017

...WEST TENNESSEE...

CITY           SKY/WX    TMP DP  RH WIND       PRES   REMARKS
MEMPHIS INTL   TSTM      65  63  93 E36G64    29.91F
NWS MEMPHIS      N/A     63 N/A N/A MISG        N/A
JACKSON        TSTM      65  64  97 NE13      29.98F
COVINGTON      CLOUDY    64  63  94 E8G20     29.94F
BOLIVAR        CLOUDY    64  63  94 N12G20    29.98R FOG
SELMER         CLOUDY    64  63  94 N14G23    29.98R FOG
SAVANNAH       CLOUDY    64  63  94 N8        29.91R FOG
DYERSBURG        N/A    N/A N/A N/A MISG        N/A
UNION CITY     CLOUDY    64  63  94 SE8       29.91F
PARIS          CLOUDY    64  63  94 S8        29.99R
HUNTINGDON     MOCLDY    64  63  94 CALM      29.97F


...EASTERN ARKANSAS...

CITY           SKY/WX    TMP DP  RH WIND       PRES   REMARKS
JONESBORO      HVY RAIN  64  61  90 E13       29.90F
WEST MEMPHIS   LGT RAIN  65  65 100 NE16G28   29.90F
BATESVILLE     CLOUDY    64  63  94 NE6       29.96R THUNDER
NEWPORT        TSTM      64  62  93 VRB5      29.99R
WALNUT RIDGE   CLOUDY    63  59  88 E9        29.92F THUNDER
BLYTHEVILLE    LGT RAIN  65  64  97 E14       29.93F
SEARCY         CLOUDY    69  64  84 N20G26    29.94R
STUTTGART      CLOUDY    81  66  61 S5        29.84S
PINE BLUFF     CLOUDY    78  75  90 S5        29.84R
MONTICELLO     MOCLDY    78  74  87 SW5       29.85R


...NORTH MISSISSIPPI...

CITY           SKY/WX    TMP DP  RH WIND       PRES   REMARKS
TUPELO         MOCLDY    80  72  76 S5        29.86S
OXFORD         PTCLDY    77  72  83 SW3       29.89R
BATESVILLE     CLOUDY    80  72  76 SW7       29.86S
TUNICA         LGT RAIN  64  61  88 N29G49    29.91R
CLARKSDALE       N/A     82  79  89 MISG      29.84F HX  93
CORINTH        DRIZZLE   66  63  88 N9        29.92R
GREENWOOD      CLEAR     77  73  87 S9        29.85S
COLUMBUS       PTCLDY    77  74  90 CALM      29.87R
STARKVILLE     CLEAR     73  72  94 S3        29.89S
GOLDEN TRIANGL CLEAR     73  68  83 S6        29.83


...SOUTHEAST MISSOURI...

CITY           SKY/WX    TMP DP  RH WIND       PRES   REMARKS
KENNETT        DRIZZLE   64  64 100 E8        29.92S
MALDEN         LGT RAIN  64  63  94 SE13      29.89F
WEST PLAINS    TSTM      62  60  93 SW12      29.90R
POPLAR BLUFF   LGT RAIN  64  63  96 SE9         N/A
CAPE GIRARDEAU LGT RAIN  64  62  93 E13       29.83F


...NORTHWEST ALABAMA...

CITY           SKY/WX    TMP DP  RH WIND       PRES   REMARKS
MUSCLE SHOALS  TSTM      67  63  87 N13       29.92F


...MIDDLE TENNESSEE...

CITY           SKY/WX    TMP DP  RH WIND       PRES   REMARKS
NASHVILLE      CLOUDY    65  64  97 S8        29.94S
CLARKSVILLE    LGT RAIN  64  61  90 W7        29.95R
COLUMBIA       MOCLDY    64  63  94 VRB3G12   29.91R


...WESTERN KENTUCKY...

CITY           SKY/WX    TMP DP  RH WIND       PRES   REMARKS
PADUCAH        RAIN      65  61  87 SE7       29.89F
FORT CAMPBELL  LGT RAIN  64  64 100 SW14      29.95R


...CENTRAL ARKANSAS...

CITY           SKY/WX    TMP DP  RH WIND       PRES   REMARKS
LITTLE ROCK    CLOUDY    78  76  93 SE7       29.82S FOG


SKY/WX REPORTED AS FAIR MEANS FEW OR NO CLOUDS BELOW
12 THOUSAND FEET.





USA.gov is the U.S. government's official web portal to all federal, state and local government web resources and services.